Regional Weather Roundup
Issued by NWS

Home | Current Version | Previous Version | Graphics & Text | Print | Product List | Glossary On
Versions: 1 2 3 4 5 6 7 8 9 10 11 12 13 14 15 16 17 18 19 20 21 22 23 24 25 26 27 28 29 30 31 32 33 34 35 36 37 38 39 40 41 42 43 44 45 46 47 48 49 50
000
ASUS45 KTFX 031019
RWRMT
MONTANA HOURLY WEATHER ROUNDUP
NATIONAL WEATHER SERVICE GREAT FALLS MT
319 AM MST TUE MAR 3 2015

NOTE: "FAIR" INDICATES FEW OR NO CLOUDS BELOW 12000 FEET WITH NO
SIGNIFICANT WEATHER AND/OR OBSTRUCTIONS TO VISIBILITY.

* THESE STATIONS ARE NOT UNDER NWS QUALITY CONTROL. THEY DO NOT
   REPORT WEATHER SUCH AS PRECIPITATION OR FOG.

MTZ001>007-043-031100-
WEST OF THE DIVIDE
CITY           SKY/WX    TMP DP  RH WIND       PRES   REMARKS
KALISPELL      CLOUDY    19   1  45 N12       30.15R WCI   6
MISSOULA       CLEAR     19   3  49 E14       30.11R WCI   5
BUTTE          LGT SNOW   9   1  70 N17G24    29.93R VSB 2 1/2 WCI  -9
MULLAN PASS    MOCLDY     9   5  84 VRB5      29.88R
* ANACONDA     MOCLDY     9   1  70 N15G23     N/A   WCI  -8
* ESSEX        N/A       10  -4  53 SE6G12     N/A
* EUREKA APT   PTCLDY    16   1  51 NE5       30.20R WCI   8
* HAMILTON APT PTCLDY    19   5  54 NW8       30.03S WCI   9
* LIBBY APT    CLEAR      9   7  91 CALM      30.19R
* LINCOLN      N/A        9   0  66 NE10G19    N/A   WCI  -5
* LOOKOUT PASS N/A       13   9  84 W3         N/A
* POLSON       N/A       16   1  51 NE2G7      N/A
* RONAN APT    PTCLDY    19  12  74 N/A        N/A
* SEELEY LAKE  N/A        9   0  66 E1G13      N/A
* THOMP F APT  CLEAR     14   4  64 N12G24     N/A
$$

MTZ008-052>055-031100-
SOUTHWEST MONTANA
CITY           SKY/WX    TMP DP  RH WIND       PRES   REMARKS
BOZEMAN        LGT SNOW  14   9  80 W8        29.99R VSB 3    WCI   3
DILLON         CLOUDY    12   5  73 N21G29    29.90R WCI  -7
* W YELLOWSTON CLOUDY    11   5  77 N7G17      N/A
* THREE FORKS  CLOUDY    14   3  61 N15G28     N/A   WCI  -1
* BOULDER HILL N/A        5   0  80 N16G25     N/A   WCI -14
* MONIDA PASS  N/A       10   7  88 NW12       N/A   WCI  -5
* RAYNOLDS PAS N/A        5   4  96 NW26G34    N/A   WCI -18
* WHITEHALL    N/A       14   6  70 N11G18     N/A   WCI   1
* WISE RIVER   N/A       10  -2  58 E7G19      N/A   WCI  -1
$$

MTZ009>010-012-014-046-048-049-054-031100-
EAST SLOPES AND CENTRAL MONTANA
CITY           SKY/WX    TMP DP  RH WIND       PRES   REMARKS
CUT BANK       CLOUDY     3  -2  79 N8        30.20R WCI -10
GREAT FALLS    CLOUDY     3   0  87 N8        30.20R WCI -10
HELENA         CLOUDY    14   3  61 N13       30.12S
MALMSTROM AFB  PTCLDY     7   3  83 N6        30.22R WCI  -4
* CONRAD       CLEAR      7   0  73 W6         N/A   WCI  -4
* DEARBORN     N/A       12   0  58 VRB12G19    N/A   WCI  -2
* EAST GLACIER N/A        2  -4  76 E1         N/A
* MONARCH      N/A        2  -7  65 N9G14      N/A   WCI -13
* PENDROY      N/A        4  -3  72 VRB9       N/A   WCI -10
* ROGERS PASS  N/A        4   0  83 S2G13      N/A
* SWEET GRASS  N/A        0  -8  68 N11        N/A   WCI -17
* WHITE SULPH  N/A        7  -2  66 NW12G20    N/A   WCI  -9
$$

MTZ011-013-016-021-035-040-045-047-050-051-031100-
NORTH CENTRAL MONTANA
CITY           SKY/WX    TMP DP  RH WIND       PRES   REMARKS
HAVRE          CLEAR      5   0  80 W8        30.24S WCI  -8
LEWISTOWN      CLOUDY     9   0  66 NW14G20   30.09S WCI  -7
* N BAR RANCH  HAZE       7   0  73 NW20G26   30.03S WCI -13
* CHINOOK      CLEAR      7   0  73 W5        30.24S WCI  -2
* FORT BENTON  PTCLDY     7  -2  66 W6        30.27S WCI  -4
* CHESTER      N/A        5  -6  60 NW4G10     N/A
* DENTON       N/A        9  -2  61 NW13G19    N/A   WCI  -7
* GEYSER       N/A        8  -4  58 NW9        N/A   WCI  -5
* JUDITH GAP   N/A        6   5  96 N30G35     N/A   WCI -18
* LOMA         N/A        8  -1  66 W6         N/A   WCI  -2
$$

MTZ017>020-022>027-061-062-031100-
NORTHEAST MONTANA
CITY           SKY/WX    TMP DP  RH WIND       PRES   REMARKS
GLASGOW        PTCLDY     7  -4  60 NW14G24   30.14R WCI -10
GLENDIVE       CLOUDY    10   1  67 NW20      30.06R WCI  -9
JORDAN         CLOUDY    10   0  64 N17       30.12R WCI  -8
SIDNEY         PTCLDY     9  -2  61 NW14      30.11R WCI  -7
WOLF POINT     PTCLDY     9   0  66 W10       30.14R WCI  -5
* BEAVER HILL  N/A        9   1  70 NW24G30    N/A   WCI -12
* CIRCLE       N/A        9  -2  61 NW11G21    N/A   WCI  -5
* LINDSAY DVD  N/A        7  -3  63 NW24G32    N/A   WCI -14
* NAVAJO       N/A        2  -3  79 NW19G24    N/A   WCI -19
* PLENTYWOOD A CLEAR      3  -4  72 NW20      30.00S WCI -18
* POPLAR APT   CLEAR      7   0  73 W8        30.12R WCI  -6
* SACO         N/A        6  -1  73 W9         N/A   WCI  -8
$$

MTZ028>042-056>058-031100-
SOUTHCENTRAL AND SOUTHEAST MONTANA
CITY           SKY/WX    TMP DP  RH WIND       PRES   REMARKS
BAKER          CLOUDY    10   3  73 NW20G32   29.98R WCI  -9
BILLINGS       LGT SNOW  12   3  67 N16       30.07R WCI  -5
LIVINGSTON     LGT SNOW  12   7  80 E18G25    29.99S WCI  -5
MILES CITY     CLOUDY    14   3  61 N23       30.08R WCI  -5
* BIG TIMBER A CLOUDY     9   0  66 N13G18    30.04S WCI  -7
* FORSYTH APT  CLOUDY    16   7  67 NW15G20   30.10R WCI   1
* LAUREL APT   CLOUDY    16   9  74 N/A        N/A
* ROUNDUP APT  CLOUDY    10  -2  58 N11G16     N/A   WCI  -4
* ALZADA       N/A       13   8  80 NW16G23    N/A   WCI  -3
* HYSHAM       N/A       14   9  80 NE6G18     N/A   WCI   5
* LAME DEER    N/A        9   6  87 N14G21     N/A   WCI  -7
* REED POINT   N/A       13   7  77 W2G9       N/A
* ROSCOE HILL  N/A        8   4  84 NW4        N/A
$$

REGIONAL REPORTS...DAKOTAS
CITY           SKY/WX    TMP DP  RH WIND       PRES   REMARKS
WILLISTON      PTCLDY     5  -2  72 NW13      30.05R WCI -12
DICKINSON      CLOUDY    10   0  64 NW25G36   29.92R WCI -11
BEACH          LGT SNOW   9   5  84 NW20      30.01R WCI -10
CROSBY         CLEAR      1  -2  87 NW20G25   29.99F WCI -21
TIOGA          PTCLDY     1   0  95 NW15G20   29.99R WCI -18
WATFORD CITY   CLEAR      5  -2  72 NW13G22   30.01R WCI -12
BISMARCK       CLOUDY    14   5  67 NW28G37   29.89S WCI  -6
GRAND FORKS    CLOUDY    19  12  74 NW21G28   29.75S WCI   3
FARGO          CLOUDY    27  21  78 W10G17    29.73F WCI  18
BUFFALO SD     CLOUDY    16   9  74 NW25      29.82R WCI  -3
RAPID CITY     FOG       18  12  77 N32G41    29.82R VSB 1    WCI  -2
$$

REGIONAL REPORTS...WYOMING/IDAHO/WASHINGTON
CITY           SKY/WX    TMP DP  RH WIND       PRES   REMARKS
GILLETTE       LGT SNOW  12   9  88 N25G32    29.88R VSB 1    WCI  -8
SHERIDAN       LGT SNOW  12   9  88 NW26      29.99R VSB 1 3/4 WCI  -8
CODY           CLOUDY    10   5  80 N15G20    29.91S WCI  -7
YELLOWSTONE LA MOCLDY     9   1  70 N/A       29.67R
SALMON         CLOUDY   N/A N/A N/A NE16      29.88R
MULLAN PASS    MOCLDY     9   5  84 VRB5      29.88S
SAND POINT     CLEAR     27  10  49 NE12G17   30.14R WCI  16
SPOKANE        CLEAR     25  16  69 N10       30.10R WCI  15
$$

REGIONAL REPORTS...ALBERTA
CITY           SKY/WX    TMP DP  RH WIND       PRES   REMARKS
CALGARY        FAIR       3  -8  60 NW7       30.21F WCI  -9
LETHBRIDGE     CLEAR      5  -2  72 NW14      30.28R WCI -12
MEDICINE HAT   CLOUDY     5  -2  72 NW10      30.29R WCI -10
EDMONTON       N/A        0 -11  59 W8        30.27F WCI -14
WATERTON GATE  N/A        0  -4  83 E1         N/A
CARDSTON       N/A        0  -4  83 E1         N/A
MILK RIVER     N/A        0  -8  68 W5         N/A   WCI -11
$$

REGIONAL REPORTS...SASKATCHEWAN
CITY           SKY/WX    TMP DP  RH WIND       PRES   REMARKS
SWIFT CURRENT  CLOUDY     0  -6  75 NW16      30.10F WCI -20
MOOSE JAW      FAIR      -2  -4  91 NW18      30.09R WCI -24
REGINA         SNOW      -4  -9  79 NW17G24   30.04F WCI -26
ASSINIBOIA     N/A        0  -6  75 NW16       N/A   WCI -20
CORONACH       N/A        1  -2  87 NW21G28    N/A   WCI -21

$$



USA.gov is the U.S. government's official web portal to all federal, state and local government web resources and services.